Location: Newark
(43.0000°N, 1.6781°W)
Time: 23:55:21
(UTC+00:00)

deb Explorer IX - Pass Details

Date: 23 April 2021
Orbit: 541 x 1098 km, 38.8° (Epoch: 12 May)

Event Time Altitude Azimuth Distance (km) Brightness Sun altitude
Rises 11:46:39 0° 265° (W) 3,056 ? 59.4°
Reaches altitude 10° 11:50:35 10° 233° (SW) 2,273 ? 59.5°
Maximum altitude 11:52:27 12° 213° (SSW) 2,212 ? 59.6°
Drops below altitude 10° 11:54:25 10° 192° (SSW) 2,406 ? 59.6°
Sets 11:58:56 0° 163° (SSE) 3,496 ? 59.7°
